GW6394 Weather Reports


Display with metric or nautical units.
time (UTC)temp
F
wind
direction
speed
MPH
gust
MPH
rain 1hr
in
rain 24hr
in
rain mn
in
humidity
%
barometer
mb
20260510061006 48 225 1.0 2.0 0.00 0.00 0.00 95 1010.8
20260510060503 48 226 0.0 1.0 0.00 0.00 0.00 95 1010.8
20260510060006 48 211 0.0 2.0 0.00 0.00 0.00 95 1010.9
20260510055503 48 219 0.0 2.0 0.00 0.00 0.00 95 1010.9
20260510055003 49 173 0.0 3.0 0.00 0.00 0.00 95 1010.9
20260510054513 49 198 0.0 3.0 0.00 0.00 0.00 95 1010.9
20260510054003 49 208 1.0 2.0 0.00 0.00 0.00 95 1010.9
20260510053503 49 221 0.0 1.0 0.00 0.00 0.00 96 1011.0
20260510053003 49 200 0.0 1.0 0.00 0.00 0.00 96 1011.0
20260510052504 49 170 1.0 1.0 0.00 0.00 0.00 96 1011.1
20260510052006 49 208 0.0 1.0 0.00 0.00 0.00 96 1011.0
20260510051515 49 229 0.0 1.0 0.00 0.00 0.00 96 1011.0
20260510051002 49 229 0.0 2.0 0.00 0.00 0.00 96 1011.0
20260510050503 49 228 0.0 2.0 0.00 0.00 0.00 96 1010.9
20260510050007 48 146 0.0 1.0 0.00 0.00 0.00 96 1011.0
20260510045503 48 183 0.0 1.0 0.00 0.00 0.00 95 1010.9
20260510045003 48 127 0.0 1.0 0.00 0.00 0.00 95 1010.9
20260510044516 48 127 0.0 1.0 0.00 0.00 0.00 95 1010.8
20260510044003 48 127 0.0 2.0 0.00 0.00 0.00 95 1010.7
20260510043503 48 148 0.0 2.0 0.00 0.00 0.00 95 1010.6
20260510043006 47 92 0.0 1.0 0.00 0.00 0.00 95 1010.5
20260510042504 47 92 0.0 1.0 0.00 0.00 0.00 95 1010.4
20260510042005 47 92 0.0 1.0 0.00 0.00 0.00 95 1010.6
20260510041504 47 205 0.0 1.0 0.00 0.00 0.00 95 1010.5
20260510041003 47 238 0.0 1.0 0.00 0.00 0.00 95 1010.6
20260510040503 46 238 0.0 1.0 0.00 0.00 0.00 95 1010.6
20260510040008 47 238 0.0 1.0 0.00 0.00 0.00 95 1010.5
20260510035503 47 238 0.0 1.0 0.00 0.00 0.00 95 1010.5
20260510035004 47 238 0.0 1.0 0.00 0.00 0.00 95 1010.5
20260510034509 47 238 0.0 1.0 0.00 0.00 0.00 94 1010.4
20260510034004 47 238 0.0 1.0 0.00 0.00 0.00 94 1010.5
20260510033503 47 243 0.0 1.0 0.00 0.00 0.00 94 1010.5
20260510033008 47 243 0.0 1.0 0.00 0.00 0.00 94 1010.4
20260510032503 47 243 0.0 1.0 0.00 0.00 0.00 94 1010.3
20260510032003 47 218 0.0 1.0 0.00 0.00 0.00 94 1010.3
20260510031506 47 237 0.0 1.0 0.00 0.00 0.00 94 1010.4
20260510031003 47 255 0.0 1.0 0.00 0.00 0.00 94 1010.4
20260510030503 47 255 0.0 1.0 0.00 0.00 0.00 94 1010.4
20260510030009 47 229 0.0 1.0 0.00 0.00 0.00 94 1010.3
20260510025504 47 229 0.0 1.0 0.00 0.00 0.00 94 1010.3
20260510025003 47 229 0.0 1.0 0.00 0.00 0.00 94 1010.2
20260510024509 47 229 0.0 1.0 0.00 0.00 0.00 94 1010.3
20260510024003 47 229 0.0 1.0 0.00 0.00 0.00 94 1010.3
20260510023504 47 164 0.0 1.0 0.00 0.00 0.00 94 1010.3
20260510023008 48 143 0.0 1.0 0.00 0.00 0.00 94 1010.3
20260510022504 48 143 0.0 1.0 0.00 0.00 0.00 94 1010.3
20260510022003 48 143 0.0 1.0 0.00 0.00 0.00 93 1010.4
20260510021509 48 143 0.0 1.0 0.00 0.00 0.00 94 1010.5
20260510021007 48 143 0.0 1.0 0.00 0.00 0.00 94 1010.4
20260510020503 48 143 0.0 1.0 0.00 0.00 0.00 94 1010.5
20260510020008 48 141 0.0 1.0 0.00 0.00 0.00 94 1010.4
20260510015506 48 150 0.0 1.0 0.00 0.00 0.00 94 1010.4
20260510015003 48 150 0.0 2.0 0.00 0.00 0.00 94 1010.4
20260510014519 48 135 0.0 2.0 0.00 0.00 0.00 94 1010.4
20260510014007 48 131 0.0 1.0 0.00 0.00 0.00 93 1010.3
20260510013504 47 131 0.0 1.0 0.00 0.00 0.00 92 1010.3
20260510013008 47 131 0.0 1.0 0.00 0.00 0.00 92 1010.1
20260510012504 47 131 0.0 1.0 0.00 0.00 0.00 92 1010.1
20260510012004 48 131 0.0 1.0 0.00 0.00 0.00 92 1010.1
20260510011512 48 131 0.0 1.0 0.00 0.00 0.00 92 1010.0
20260510011004 48 131 0.0 1.0 0.00 0.00 0.00 92 1010.1
20260510010507 48 226 0.0 1.0 0.00 0.00 0.00 92 1010.0
20260510010011 48 184 0.0 1.0 0.00 0.00 0.00 92 1010.0
20260510005502 48 155 0.0 1.0 0.00 0.00 0.00 91 1009.8
20260510005004 48 212 0.0 1.0 0.00 0.00 0.00 90 1009.8
20260510004511 49 212 0.0 1.0 0.00 0.00 0.00 90 1009.8
20260510004003 49 212 0.0 2.0 0.00 0.00 0.00 90 1009.8
20260510003503 49 223 0.0 2.0 0.00 0.00 0.00 90 1009.8
20260510003011 49 213 0.0 1.0 0.00 0.00 0.00 90 1009.8
20260510002504 49 203 0.0 1.0 0.00 0.00 0.00 90 1009.7
20260510002004 49 193 0.0 1.0 0.00 0.00 0.00 90 1009.6
20260510001512 50 173 0.0 1.0 0.00 0.00 0.00 90 1009.6
20260510001004 49 129 0.0 1.0 0.00 0.00 0.00 90 1009.5
20260510000504 50 128 0.0 1.0 0.00 0.00 0.00 89 1009.5
20260510000012 50 128 0.0 1.0 0.00 0.00 0.00 88 1009.3
20260509235503 50 128 0.0 1.0 0.00 0.00 0.00 88 1009.3
20260509235003 50 128 0.0 1.0 0.00 0.00 0.00 88 1009.2
20260509234513 51 128 0.0 1.0 0.00 0.00 0.00 87 1009.2
20260509234004 51 186 0.0 0.0 0.00 0.00 0.00 86 1009.1
20260509233504 51 186 0.0 0.0 0.00 0.00 0.00 86 1009.0
20260509233012 51 186 0.0 0.0 0.00 0.00 0.00 85 1009.1
20260509232508 52 186 0.0 1.0 0.00 0.00 0.00 84 1009.2
20260509232003 52 185 0.0 2.0 0.00 0.00 0.00 83 1009.2
20260509231525 52 164 0.0 2.0 0.00 0.00 0.00 84 1009.1
20260509231004 52 186 1.0 3.0 0.00 0.00 0.00 83 1009.0
20260509230504 53 193 1.0 3.0 0.00 0.00 0.00 83 1009.0
20260509230014 53 226 1.0 3.0 0.00 0.00 0.00 83 1009.1
20260509225504 53 192 0.0 3.0 0.00 0.00 0.00 82 1009.2
20260509225003 53 210 1.0 3.0 0.00 0.00 0.00 84 1009.2
20260509224516 52 96 0.0 3.0 0.00 0.00 0.00 83 1009.1
20260509224004 53 142 1.0 3.0 0.00 0.00 0.00 84 1009.2
20260509223504 52 160 1.0 3.0 0.00 0.00 0.00 84 1009.1
20260509223015 52 229 1.0 3.0 0.00 0.00 0.00 83 1009.1
20260509222503 52 194 1.0 2.0 0.00 0.00 0.00 84 1009.1
20260509222005 52 161 0.0 3.0 0.00 0.00 0.00 85 1009.1
20260509221528 52 219 0.0 3.0 0.00 0.00 0.00 85 1009.1
20260509221005 52 144 0.0 3.0 0.00 0.00 0.00 84 1009.1
20260509220504 52 158 1.0 3.0 0.00 0.00 0.00 84 1009.1
20260509220013 52 218 1.0 3.0 0.00 0.00 0.00 84 1009.2
20260509215504 52 161 0.0 6.0 0.00 0.00 0.00 85 1009.2
20260509215008 52 139 1.0 6.0 0.00 0.00 0.00 84 1009.2
20260509214517 52 257 1.0 4.0 0.00 0.00 0.00 85 1009.3
20260509214004 53 255 1.0 3.0 0.00 0.00 0.00 86 1009.3
20260509213504 52 222 0.0 6.0 0.00 0.00 0.00 87 1009.3
20260509213018 52 25 2.0 6.0 0.00 0.00 0.00 86 1009.3
20260509212508 52 281 1.0 5.0 0.00 0.00 0.00 87 1009.3
20260509212012 52 204 1.0 3.0 0.00 0.00 0.00 86 1009.4
20260509211514 52 268 0.0 2.0 0.00 0.00 0.00 88 1009.5
20260509211007 52 183 1.0 3.0 0.00 0.00 0.00 88 1009.4
20260509210504 52 181 1.0 3.0 0.00 0.00 0.00 88 1009.5
20260509210016 52 207 1.0 4.0 0.00 0.00 0.00 88 1009.4
20260509205504 51 129 1.0 4.0 0.00 0.00 0.00 88 1009.4
20260509205005 51 197 1.0 3.0 0.00 0.00 0.00 89 1009.5
20260509204518 51 197 1.0 3.0 0.00 0.00 0.00 89 1009.4
20260509204007 50 226 0.0 2.0 0.00 0.00 0.00 90 1009.4
20260509203508 50 199 1.0 2.0 0.00 0.00 0.00 90 1009.4
20260509203017 50 217 1.0 2.0 0.00 0.00 0.00 91 1009.4
20260509202508 50 211 0.0 2.0 0.00 0.00 0.00 91 1009.4
20260509202009 49 211 1.0 2.0 0.00 0.00 0.00 91 1009.4
20260509201519 49 214 0.0 3.0 0.00 0.00 0.00 90 1009.4
20260509201010 49 63 1.0 3.0 0.00 0.00 0.00 90 1009.4
20260509200504 49 231 1.0 3.0 0.00 0.00 0.00 90 1009.7
20260509200018 49 260 1.0 5.0 0.00 0.00 0.00 91 1009.7
20260509195506 49 176 0.0 5.0 0.00 0.00 0.00 91 1009.8
20260509195005 49 217 1.0 4.0 0.00 0.00 0.00 91 1009.9
20260509194520 49 264 0.0 3.0 0.00 0.00 0.00 91 1010.0
20260509194010 49 138 0.0 3.0 0.00 0.00 0.00 91 1010.1
20260509193507 49 205 1.0 3.0 0.00 0.00 0.00 90 1010.2
20260509193020 49 236 1.0 3.0 0.00 0.00 0.00 90 1010.2
20260509192507 49 224 0.0 2.0 0.00 0.00 0.00 91 1010.3
20260509192009 49 144 0.0 3.0 0.00 0.00 0.00 90 1010.3
20260509191521 49 203 1.0 3.0 0.00 0.00 0.00 90 1010.2
20260509191004 49 198 1.0 2.0 0.00 0.00 0.00 91 1010.6
20260509190507 48 154 1.0 3.0 0.00 0.00 0.00 91 1010.5
20260509190035 49 188 1.0 3.0 0.00 0.00 0.00 91 1010.5
20260509185508 48 252 1.0 3.0 0.00 0.00 0.00 90 1010.6
20260509185006 48 261 1.0 4.0 0.00 0.00 0.00 90 1010.6
20260509184528 48 209 1.0 4.0 0.00 0.00 0.00 90 1010.7
20260509184011 48 253 1.0 3.0 0.00 0.00 0.00 90 1010.8
20260509183507 48 217 1.0 3.0 0.00 0.00 0.00 90 1010.8
20260509183027 48 154 1.0 4.0 0.00 0.00 0.00 90 1010.8
20260509182509 48 217 1.0 4.0 0.00 0.00 0.00 90 1010.8
20260509182008 48 193 1.0 2.0 0.00 0.00 0.00 90 1010.9
20260509181521 48 217 1.0 3.0 0.00 0.00 0.00 90 1010.8
20260509181011 48 166 0.0 3.0 0.00 0.00 0.00 90 1010.8
20260509180508 49 47 1.0 3.0 0.00 0.00 0.00 91 1010.8
20260509180021 49 58 1.0 2.0 0.00 0.00 0.00 91 1010.8
20260509175508 49 184 0.0 2.0 0.00 0.00 0.00 91 1010.8
20260509175004 49 187 0.0 3.0 0.00 0.00 0.00 91 1010.8
20260509174504 49 195 1.0 3.0 0.00 0.00 0.00 91 1010.8
20260509174008 48 150 1.0 3.0 0.00 0.00 0.00 91 1011.0
20260509173505 49 123 1.0 3.0 0.00 0.00 0.00 91 1011.1
20260509173011 49 156 0.0 3.0 0.00 0.00 0.00 91 1011.1
20260509172503 49 138 1.0 2.0 0.00 0.00 0.00 91 1010.9
20260509172004 49 146 0.0 2.0 0.00 0.00 0.00 90 1010.9
20260509171514 49 156 0.0 2.0 0.00 0.00 0.00 90 1010.9
20260509171006 49 153 1.0 3.0 0.00 0.00 0.00 90 1010.8
20260509170504 50 139 0.0 3.0 0.00 0.00 0.00 90 1010.9
20260509170028 50 150 0.0 3.0 0.00 0.00 0.00 89 1010.9
20260509165507 49 207 0.0 3.0 0.00 0.00 0.00 90 1011.0
20260509165007 49 152 1.0 3.0 0.00 0.00 0.00 88 1011.0
20260509164522 49 143 1.0 3.0 0.00 0.00 0.00 89 1011.0
20260509164011 49 129 1.0 3.0 0.00 0.00 0.00 89 1011.0
20260509163504 50 138 0.0 2.0 0.00 0.00 0.00 89 1011.0
20260509163007 49 145 0.0 2.0 0.00 0.00 0.00 89 1011.0
20260509162503 49 64 0.0 2.0 0.00 0.00 0.00 89 1011.0
20260509162007 49 119 0.0 2.0 0.00 0.00 0.00 88 1011.0
20260509161512 50 124 0.0 2.0 0.00 0.00 0.00 89 1011.0
20260509161003 49 93 0.0 1.0 0.00 0.00 0.00 89 1011.1
20260509160503 49 127 0.0 2.0 0.00 0.00 0.00 89 1011.1
20260509160017 49 153 0.0 2.0 0.00 0.00 0.00 89 1011.3
20260509155506 49 147 1.0 2.0 0.00 0.00 0.00 91 1011.3
20260509155011 49 128 0.0 2.0 0.00 0.00 0.00 89 1011.4
20260509154520 49 91 0.0 1.0 0.00 0.00 0.00 91 1011.4
20260509154007 49 142 0.0 1.0 0.00 0.00 0.00 91 1011.3
20260509153508 48 85 0.0 1.0 0.00 0.00 0.00 90 1011.2
20260509153024 49 85 0.0 1.0 0.00 0.00 0.00 90 1011.1
20260509152508 48 85 0.0 1.0 0.00 0.00 0.00 90 1011.0
20260509152010 48 84 0.0 1.0 0.00 0.00 0.00 89 1011.0
20260509151508 48 84 0.0 2.0 0.00 0.00 0.00 90 1011.1
20260509151003 48 85 0.0 2.0 0.00 0.00 0.00 89 1011.2
20260509150503 48 84 0.0 2.0 0.00 0.00 0.00 88 1011.3
20260509150010 48 123 0.0 1.0 0.00 0.00 0.00 90 1011.4
20260509145503 48 123 0.0 1.0 0.00 0.00 0.00 89 1011.4
20260509145003 48 62 0.0 1.0 0.00 0.00 0.00 91 1011.4
20260509144517 48 63 0.0 1.0 0.00 0.00 0.00 91 1011.5
20260509144007 48 63 0.0 1.0 0.00 0.00 0.00 90 1011.6
20260509143507 48 63 0.0 1.0 0.00 0.00 0.00 91 1011.6
20260509143020 47 58 0.0 1.0 0.00 0.00 0.00 91 1011.6
20260509142507 47 57 0.0 1.0 0.00 0.00 0.00 90 1011.5
20260509142012 47 50 0.0 1.0 0.00 0.00 0.00 91 1011.5
20260509141530 47 50 0.0 1.0 0.00 0.00 0.00 91 1011.4
20260509141010 47 50 0.0 1.0 0.00 0.00 0.00 90 1011.3
20260509140509 47 49 0.0 1.0 0.00 0.00 0.00 90 1011.2
20260509140008 47 48 0.0 1.0 0.00 0.00 0.00 89 1011.0
20260509135506 47 47 0.0 1.0 0.00 0.00 0.00 89 1011.0
20260509135004 47 47 0.0 1.0 0.00 0.00 0.00 89 1011.0
20260509134512 47 47 0.0 1.0 0.00 0.00 0.00 88 1011.0
20260509134004 47 48 0.0 1.0 0.00 0.00 0.00 88 1011.0
20260509133504 47 32 0.0 1.0 0.00 0.00 0.00 88 1010.9
20260509133017 47 32 0.0 1.0 0.00 0.00 0.00 87 1011.0
20260509132507 47 30 0.0 1.0 0.00 0.00 0.00 87 1011.1
20260509132008 47 79 0.0 1.0 0.00 0.00 0.00 86 1011.2
20260509131522 47 43 0.0 1.0 0.00 0.00 0.00 87 1011.1
20260509131009 47 43 0.0 1.0 0.00 0.00 0.00 87 1011.1
20260509130509 47 43 0.0 1.0 0.00 0.00 0.00 86 1011.3
20260509130041 47 41 0.0 1.0 0.00 0.00 0.00 85 1011.3
20260509125509 47 37 0.0 1.0 0.00 0.00 0.00 85 1011.3
20260509125012 47 65 0.0 1.0 0.00 0.00 0.00 84 1011.4
20260509124529 47 65 0.0 1.0 0.00 0.00 0.00 85 1011.4
20260509124004 47 66 0.0 1.0 0.00 0.00 0.00 84 1011.4
20260509123504 47 60 0.0 1.0 0.00 0.00 0.00 85 1011.4
20260509123021 47 61 0.0 1.0 0.00 0.00 0.00 82 1011.6
20260509122504 47 60 0.0 1.0 0.00 0.00 0.00 81 1011.5
20260509122007 47 71 0.0 1.0 0.00 0.00 0.00 82 1011.4
20260509121523 47 71 0.0 1.0 0.00 0.00 0.00 80 1011.5
20260509121006 47 71 0.0 1.0 0.00 0.00 0.00 83 1011.6
20260509120510 47 71 0.0 1.0 0.00 0.00 0.00 84 1011.5
20260509120021 47 71 0.0 2.0 0.00 0.00 0.00 84 1011.4
20260509115508 47 71 1.0 2.0 0.00 0.00 0.00 83 1011.3
20260509115008 47 85 0.0 2.0 0.00 0.00 0.00 82 1011.4
20260509114526 47 191 1.0 2.0 0.00 0.00 0.00 85 1011.4
20260509114008 47 45 0.0 1.0 0.00 0.00 0.00 85 1011.1
20260509113511 47 330 0.0 2.0 0.00 0.00 0.00 83 1011.1
20260509113026 47 330 0.0 2.0 0.00 0.00 0.00 84 1011.1
20260509112504 46 271 1.0 2.0 0.00 0.00 0.00 85 1011.2
20260509112004 46 221 0.0 1.0 0.00 0.00 0.00 87 1011.2
20260509111515 46 221 0.0 1.0 0.00 0.00 0.00 87 1011.3
20260509111005 46 68 0.0 1.0 0.00 0.00 0.00 86 1011.1
20260509110506 46 66 0.0 1.0 0.00 0.00 0.00 84 1011.1
20260509110023 45 66 0.0 1.0 0.00 0.00 0.00 85 1011.1
20260509105506 45 67 0.0 2.0 0.00 0.00 0.00 85 1011.1
20260509105010 45 65 1.0 2.0 0.00 0.00 0.00 87 1011.0
20260509104524 45 68 0.0 1.0 0.00 0.00 0.00 87 1011.1
20260509104008 45 69 1.0 1.0 0.00 0.00 0.00 87 1011.1
20260509103509 45 69 0.0 1.0 0.00 0.00 0.00 87 1011.1
20260509103029 45 68 0.0 1.0 0.00 0.00 0.00 88 1011.1
20260509102506 45 70 0.0 2.0 0.00 0.00 0.00 87 1011.2
20260509102011 45 66 0.0 2.0 0.00 0.00 0.00 87 1011.2
20260509101526 45 136 0.0 1.0 0.00 0.00 0.00 86 1011.3
20260509101008 45 136 0.0 1.0 0.00 0.00 0.00 86 1011.3
20260509100504 45 136 0.0 1.0 0.00 0.00 0.00 85 1011.3
20260509100020 45 134 0.0 1.0 0.00 0.00 0.00 85 1011.2
20260509095505 45 134 0.0 1.0 0.00 0.00 0.00 86 1011.2
20260509095007 45 134 0.0 1.0 0.00 0.00 0.00 86 1011.2
20260509094522 45 134 0.0 1.0 0.00 0.00 0.00 86 1011.2
20260509094006 46 177 0.0 0.0 0.00 0.00 0.00 86 1011.2
20260509093507 45 178 0.0 0.0 0.00 0.00 0.00 86 1011.2
20260509093026 45 178 0.0 0.0 0.00 0.00 0.00 86 1011.2
20260509092510 45 178 0.0 0.0 0.00 0.00 0.00 87 1011.3
20260509092007 45 178 0.0 0.0 0.00 0.00 0.00 88 1011.3
20260509091529 45 178 0.0 0.0 0.00 0.00 0.00 88 1011.2
20260509091009 45 178 0.0 0.0 0.00 0.00 0.00 87 1011.3
20260509090509 45 178 0.0 0.0 0.00 0.00 0.00 87 1011.3
20260509090028 45 178 0.0 0.0 0.00 0.00 0.00 87 1011.4
20260509085509 45 178 0.0 0.0 0.00 0.00 0.00 87 1011.6
20260509085010 45 178 0.0 0.0 0.00 0.00 0.00 87 1011.5
20260509084516 45 178 0.0 0.0 0.00 0.00 0.00 87 1011.5
20260509084004 45 178 0.0 0.0 0.00 0.00 0.00 87 1011.6
20260509083511 45 178 0.0 0.0 0.00 0.00 0.00 87 1011.7
20260509083021 45 178 0.0 0.0 0.00 0.00 0.00 87 1011.6
20260509082507 45 178 0.0 0.0 0.00 0.00 0.00 87 1011.6
20260509082007 45 178 0.0 0.0 0.00 0.00 0.00 88 1011.6
20260509081536 46 178 0.0 0.0 0.00 0.00 0.00 87 1011.8
20260509081010 46 178 0.0 0.0 0.00 0.00 0.00 87 1011.8
20260509080507 45 178 0.0 0.0 0.00 0.00 0.00 87 1011.9
20260509080025 45 178 0.0 0.0 0.00 0.00 0.00 88 1011.9
20260509075513 45 178 0.0 0.0 0.00 0.00 0.00 88 1011.9
20260509075011 45 178 0.0 0.0 0.00 0.00 0.00 87 1011.9
20260509074528 45 178 0.0 0.0 0.00 0.00 0.00 87 1011.9
20260509074010 45 178 0.0 0.0 0.00 0.00 0.00 87 1011.8
20260509073510 45 178 0.0 0.0 0.00 0.00 0.00 87 1011.8
20260509073017 45 178 0.0 0.0 0.00 0.00 0.00 87 1011.7
20260509072515 45 178 0.0 0.0 0.00 0.00 0.00 87 1011.8
20260509072010 45 178 0.0 0.0 0.00 0.00 0.00 87 1011.8
20260509071523 45 176 0.0 0.0 0.00 0.00 0.00 87 1011.8
20260509071007 45 176 0.0 0.0 0.00 0.00 0.00 88 1011.8
20260509070506 45 176 0.0 0.0 0.00 0.00 0.00 87 1011.7
20260509070026 45 176 0.0 0.0 0.00 0.00 0.00 87 1011.7
20260509065506 46 176 0.0 0.0 0.00 0.00 0.00 87 1011.7
20260509065009 46 176 0.0 0.0 0.00 0.00 0.00 86 1011.7
20260509064526 46 176 0.0 0.0 0.00 0.00 0.00 86 1011.7
20260509064011 46 178 0.0 0.0 0.00 0.00 0.00 86 1011.6
20260509063509 46 178 0.0 0.0 0.00 0.00 0.00 86 1011.6
20260509063026 46 178 0.0 0.0 0.00 0.00 0.00 85 1011.7
20260509062513 46 178 0.0 0.0 0.00 0.00 0.00 85 1011.7
20260509062011 46 176 0.0 0.0 0.00 0.00 0.00 86 1011.8
20260509061529 46 175 0.0 0.0 0.00 0.00 0.00 86 1011.8